Presure
209 183 193 188 186 170 201 193 192 193 177 214 206 193 171 190 150 194 205 192 222 216 253 232 276 328 319
177 213 188 172 177 188 144 182 209 165 210 186 188 180 192 190 187 199 180 195 219 218 187 334 226 317 299
208 209 179 164 181 180 145 190 192 207 180 207 175 179 180 192 184 179 222 225 195 246 250 244 355 340 296
210 163 176 193 194 133 196 154 189 180 187 185 186 189 203 186 209 195 215 206 240 322 297 340 348 312 295
203 182 151 187 212 191 186 189 165 183 212 193 198 182 192 198 209 204 236 242 246 236 244 344 337 321 316
193 164 179 209 176 183 200 193 221 182 185 185 203 205 210 204 216 217 214 264 222 324 353 342 322 325 290
190 182 196 177 179 224 187 195 186 191 186 189 202 210 241 232 220 228 253 222 306 359 363 345 321 313 294
203 185 200 206 182 181 188 185 193 173 193 207 204 231 199 204 223 203 215 258 359 339 333 323 319 310 314
192 203 171 178 190 179 179 203 181 185 194 208 184 228 207 223 211 251 286 224 335 323 321 324 321 306 283
199 194 195 196 186 184 183 187 196 196 204 254 267 219 183 202 194 273 286 332 324 310 290 306 294 296 295
210 208 203 199 198 203 207 210 189 204 240 212 244 253 227 244 280 299 289 302 310 278 295 293 286 283 286
202 198 210 219 206 219 209 228 227 218 244 264 287 264 278 278 302 295 292 281 296 300 281 284 281 283 284
328 296 266 199 205 268 257 256 270 263 266 282 279 274 273 267 292 279 283 286 267 266 286 276 282 285 281
276 290 301 285 279 283 275 271 255 275 260 265 269 266 283 291 279 275 271 277 270 270 265 250 256 277 270
262 292 312 240 276 276 270 263 262 264 259 269 257 257 282 272 269 265 272 271 264 257 261 256 252 255 252
279 284 308 276 290 270 266 265 260 251 262 251 261 273 265 270 266 260 263 252 266 263 256 255 257 254 249
265 276 302 273 284 278 264 253 247 255 244 253 277 265 261 258 257 257 260 264 274 262 253 251 249 249 262
Wind_Speed
110 111 121 106 103 77 118 97 104 104 86 109 106 87 61 110 89 113 120 97 125 109 116 106 64 36 35
107 116 116 87 90 107 63 91 120 77 114 85 85 75 104 109 102 121 85 101 114 109 74 52 81 35 36
124 122 97 77 100 97 85 102 105 113 83 104 71 76 85 115 93 87 119 121 92 120 88 80 33 34 35
123 87 89 117 113 77 98 79 94 83 87 93 101 107 119 96 123 100 113 96 116 67 63 36 32 37 37
129 102 73 107 111 106 98 98 74 97 123 112 111 102 112 119 117 110 128 111 107 101 87 34 32 36 41
114 86 96 115 93 102 108 133 115 92 98 88 130 130 134 114 116 107 97 103 87 53 36 34 31 35 44
116 96 113 98 103 117 110 121 107 123 102 101 127 132 145 131 120 122 118 98 66 33 31 28 30 37 46
123 106 129 128 110 113 125 115 125 84 112 135 127 145 105 106 118 86 89 101 22 24 22 26 31 34 41
132 137 98 98 132 108 108 139 102 105 116 140 89 143 116 131 101 117 67 85 28 24 19 24 29 33 38
143 137 126 124 122 110 114 115 134 128 136 135 107 128 84 95 72 69 50 24 26 18 24 19 23 27 36
155 154 149 134 140 133 148 141 110 137 142 119 133 113 80 90 66 41 36 26 22 29 20 23 25 25 30
134 133 142 138 137 132 146 147 134 129 124 94 67 71 62 58 40 35 29 30 27 24 26 25 24 24 28
71 97 114 106 130 117 110 110 80 83 83 64 57 56 55 55 36 34 31 28 28 26 29 26 27 24 26
105 89 73 85 83 72 72 68 82 64 73 63 52 51 44 35 33 32 32 29 27 24 21 24 20 25 25
103 66 61 89 70 67 69 68 65 62 62 51 48 50 38 34 32 31 32 31 29 28 25 25 25 26 27
76 69 59 63 58 63 59 58 58 59 50 47 46 42 38 32 31 31 30 32 30 29 30 28 28 28 29
89 67 57 58 54 51 54 56 58 51 48 47 41 37 35 33 32 32 32 31 28 27 27 26 28 29 31
Wind_Direction
286 292 294 297 298 289 304 294 308 310 301 310 316 317 296 316 303 313 314 310 318 319 321 319 307 274 259
295 285 294 295 299 297 263 304 303 285 308 310 316 311 312 312 312 308 303 311 314 315 303 298 311 263 257
283 281 286 280 291 294 283 301 303 303 301 307 303 305 306 308 306 302 309 313 301 317 311 311 263 238 242
286 281 281 294 293 270 292 284 296 296 299 306 304 305 305 305 307 304 308 307 317 303 303 279 265 244 236
287 290 278 294 291 295 293 295 287 301 302 303 302 300 303 306 305 306 311 314 313 313 312 271 262 236 212
288 282 286 292 287 290 290 298 292 295 298 299 300 301 301 302 303 308 306 310 317 296 273 264 250 228 217
287 281 291 285 290 286 292 293 294 295 296 298 300 299 303 305 305 308 308 310 301 277 267 257 244 226 219
283 281 289 288 290 291 292 290 291 291 292 299 299 299 299 300 305 299 307 311 272 270 249 246 236 229 220
285 280 283 283 287 287 286 289 290 289 293 294 292 298 301 301 300 306 303 306 285 278 269 253 237 229 231
278 280 284 280 281 282 284 286 285 291 292 296 297 296 283 293 286 303 295 280 278 254 258 254 240 233 228
280 279 280 280 283 284 286 284 283 287 291 293 298 298 287 297 295 292 290 283 259 278 246 246 239 234 231
275 273 274 276 285 281 285 286 285 287 290 287 289 291 288 289 283 284 281 280 274 251 258 257 249 243 241
259 268 270 274 282 279 277 280 277 281 284 282 285 283 286 286 278 280 278 272 269 269 259 265 256 246 242
266 268 260 270 269 263 265 267 279 271 280 282 280 282 276 273 274 275 278 274 269 266 260 259 258 253 250
275 263 255 280 264 262 265 265 268 268 275 276 279 279 268 272 270 271 271 268 268 270 271 264 260 253 249
268 267 249 260 249 260 258 255 260 269 271 276 272 265 268 268 265 265 266 265 261 258 261 263 262 261 256
266 265 247 253 248 242 245 251 261 264 272 269 257 260 263 264 266 264 262 261 256 256 256 255 257 257 256